owner,sensor,date,latitude,longitude,vertical_datum,wind_speed,wind_to_direction,wind_speed_of_gust,qcFlag 
DISL,ioos:station:DISL:PPTA:1,2016-02-01T00:00:00Z,30.2791,-87.5561,0.0,4115.04,0.0,-9999.0,'1111122,1114422,1111122' 
DISL,ioos:station:DISL:PPTA:1,2016-02-01T00:30:00Z,30.2791,-87.5561,0.0,5.28,153.3,-9999.0,'1111122,1111122,1111122' 
DISL,ioos:station:DISL:PPTA:1,2016-02-01T01:00:00Z,30.2791,-87.5561,0.0,4.78,151.8,-9999.0,'1111122,1111122,1111122' 
DISL,ioos:station:DISL:PPTA:1,2016-02-01T14:30:00Z,30.2791,-87.5561,0.0,4115.04,0.0,-9999.0,'1111122,1114422,1111122' 
DISL,ioos:station:DISL:PPTA:1,2016-02-01T15:00:00Z,30.2791,-87.5561,0.0,4115.04,0.0,-9999.0,'1111122,1114422,1111122' 
DISL,ioos:station:DISL:PPTA:1,2016-02-01T15:30:00Z,30.2791,-87.5561,0.0,4115.04,0.0,-9999.0,'1111122,1114422,1111122' 
DISL,ioos:station:DISL:PPTA:1,2016-02-01T16:00:00Z,30.2791,-87.5561,0.0,4115.04,0.0,-9999.0,'1111122,1114422,1111122' 
DISL,ioos:station:DISL:PPTA:1,2016-02-01T16:30:00Z,30.2791,-87.5561,0.0,4115.04,0.0,-9999.0,'1111122,1114422,1111122' 
DISL,ioos:station:DISL:PPTA:1,2016-02-01T17:00:00Z,30.2791,-87.5561,0.0,4115.04,0.0,-9999.0,'1111122,1114422,1111122' 
DISL,ioos:station:DISL:PPTA:1,2016-02-01T17:30:00Z,30.2791,-87.5561,0.0,4115.04,0.0,-9999.0,'1111122,1114422,1111122' 
DISL,ioos:station:DISL:PPTA:1,2016-02-01T18:00:00Z,30.2791,-87.5561,0.0,4115.04,0.0,-9999.0,'1111122,1114422,1111122' 
DISL,ioos:station:DISL:PPTA:1,2016-02-01T18:30:00Z,30.2791,-87.5561,0.0,4115.04,0.0,-9999.0,'1111122,1114422,1111122' 
DISL,ioos:station:DISL:PPTA:1,2016-02-01T19:00:00Z,30.2791,-87.5561,0.0,4115.04,0.0,-9999.0,'1111122,1114422,1111122' 
DISL,ioos:station:DISL:PPTA:1,2016-02-01T19:30:00Z,30.2791,-87.5561,0.0,4115.04,0.0,-9999.0,'1111122,1114422,1111122' 
DISL,ioos:station:DISL:PPTA:1,2016-02-01T20:00:00Z,30.2791,-87.5561,0.0,4115.04,0.0,-9999.0,'1111122,1114422,1111122' 
DISL,ioos:station:DISL:PPTA:1,2016-02-01T20:30:00Z,30.2791,-87.5561,0.0,4115.04,0.0,-9999.0,'1111122,1114422,1111122' 
DISL,ioos:station:DISL:PPTA:1,2016-02-01T21:00:00Z,30.2791,-87.5561,0.0,4115.04,0.0,-9999.0,'1111122,1114422,1111122' 
DISL,ioos:station:DISL:PPTA:1,2016-02-01T21:30:00Z,30.2791,-87.5561,0.0,4115.04,0.0,-9999.0,'1111122,1114422,1111122' 
DISL,ioos:station:DISL:PPTA:1,2016-02-01T22:00:00Z,30.2791,-87.5561,0.0,4115.04,0.0,-9999.0,'1111122,1114422,1111122' 
DISL,ioos:station:DISL:PPTA:1,2016-02-01T22:30:00Z,30.2791,-87.5561,0.0,1.0,137.4,-9999.0,'1111122,1111122,1111122' 
DISL,ioos:station:DISL:PPTA:1,2016-02-01T23:00:00Z,30.2791,-87.5561,0.0,2.13,120.5,-9999.0,'1111122,1111122,1111122' 
DISL,ioos:station:DISL:PPTA:1,2016-02-01T23:30:00Z,30.2791,-87.5561,0.0,1.9,117.4,-9999.0,'1111122,1111122,1111122' 
DISL,ioos:station:DISL:PPTA:1,2016-02-02T00:00:00Z,30.2791,-87.5561,0.0,2.09,115.2,-9999.0,'1111122,1111122,1111122' 
DISL,ioos:station:DISL:PPTA:1,2016-02-02T00:30:00Z,30.2791,-87.5561,0.0,2.1,116.2,-9999.0,'1111122,1111122,1111122' 
DISL,ioos:station:DISL:PPTA:1,2016-02-02T01:00:00Z,30.2791,-87.5561,0.0,2.8,102.4,-9999.0,'1111122,1111122,1111122' 
DISL,ioos:station:DISL:PPTA:1,2016-02-02T01:30:00Z,30.2791,-87.5561,0.0,2.8,113.5,-9999.0,'1111122,1111122,1111122' 
DISL,ioos:station:DISL:PPTA:1,2016-02-02T02:00:00Z,30.2791,-87.5561,0.0,2.82,112.8,-9999.0,'1111122,1111122,1111122' 
DISL,ioos:station:DISL:PPTA:1,2016-02-02T02:30:00Z,30.2791,-87.5561,0.0,3.72,99.3,-9999.0,'1111122,1111122,1111122' 
DISL,ioos:station:DISL:PPTA:1,2016-02-02T03:00:00Z,30.2791,-87.5561,0.0,3.49,103.4,-9999.0,'1111122,1111122,1111122' 
DISL,ioos:station:DISL:PPTA:1,2016-02-02T03:30:00Z,30.2791,-87.5561,0.0,3.51,97.8,-9999.0,'1111122,1111122,1111122' 
DISL,ioos:station:DISL:PPTA:1,2016-02-02T04:00:00Z,30.2791,-87.5561,0.0,3.62,98.8,-9999.0,'1111122,1111122,1111122' 
DISL,ioos:station:DISL:PPTA:1,2016-02-02T04:30:00Z,30.2791,-87.5561,0.0,3.92,107.6,-9999.0,'1111122,1111122,1111122' 
DISL,ioos:station:DISL:PPTA:1,2016-02-02T05:00:00Z,30.2791,-87.5561,0.0,3.66,111.6,-9999.0,'1111122,1111122,1111122' 
DISL,ioos:station:DISL:PPTA:1,2016-02-02T05:30:00Z,30.2791,-87.5561,0.0,3.58,108.1,-9999.0,'1111122,1111122,1111122' 
DISL,ioos:station:DISL:PPTA:1,2016-02-02T06:00:00Z,30.2791,-87.5561,0.0,3.4,108.2,-9999.0,'1111122,1111122,1111122' 
DISL,ioos:station:DISL:PPTA:1,2016-02-02T14:30:00Z,30.2791,-87.5561,0.0,3.74,117.4,-9999.0,'1111122,1111122,1111122' 
DISL,ioos:station:DISL:PPTA:1,2016-02-02T15:00:00Z,30.2791,-87.5561,0.0,3.74,115.4,-9999.0,'1111122,1111122,1111122' 
DISL,ioos:station:DISL:PPTA:1,2016-02-02T15:30:00Z,30.2791,-87.5561,0.0,4.12,110.5,-9999.0,'1111122,1111122,1111122' 
DISL,ioos:station:DISL:PPTA:1,2016-02-02T16:00:00Z,30.2791,-87.5561,0.0,4.0,104.1,-9999.0,'1111122,1111122,1111122' 
DISL,ioos:station:DISL:PPTA:1,2016-02-02T17:00:00Z,30.2791,-87.5561,0.0,3.92,127.7,-9999.0,'1111122,1111122,1111122' 
DISL,ioos:station:DISL:PPTA:1,2016-02-02T17:30:00Z,30.2791,-87.5561,0.0,6.68,9.29,-9999.0,'1111122,1111122,1111122' 
DISL,ioos:station:DISL:PPTA:1,2016-02-02T18:00:00Z,30.2791,-87.5561,0.0,5.22,29.27,-9999.0,'1111122,1111122,1111122' 
DISL,ioos:station:DISL:PPTA:1,2016-02-02T18:30:00Z,30.2791,-87.5561,0.0,6.1,14.01,-9999.0,'1111122,1111122,1111122' 
DISL,ioos:station:DISL:PPTA:1,2016-02-02T19:00:00Z,30.2791,-87.5561,0.0,3.1,13.75,-9999.0,'1111122,1111122,1111122' 
DISL,ioos:station:DISL:PPTA:1,2016-02-02T19:30:00Z,30.2791,-87.5561,0.0,4.13,3.702,-9999.0,'1111122,1111122,1111122' 
DISL,ioos:station:DISL:PPTA:1,2016-02-02T20:00:00Z,30.2791,-87.5561,0.0,1.43,22.75,-9999.0,'1111122,1111122,1111122' 
DISL,ioos:station:DISL:PPTA:1,2016-02-02T20:30:00Z,30.2791,-87.5561,0.0,1.29,22.09,-9999.0,'1111122,1111122,1111122' 
DISL,ioos:station:DISL:PPTA:1,2016-02-02T21:00:00Z,30.2791,-87.5561,0.0,2.75,343.9,-9999.0,'1111122,1111122,1111122' 
DISL,ioos:station:DISL:PPTA:1,2016-02-02T21:30:00Z,30.2791,-87.5561,0.0,3.04,350.9,-9999.0,'1111122,1111122,1111122' 
DISL,ioos:station:DISL:PPTA:1,2016-02-02T22:00:00Z,30.2791,-87.5561,0.0,1.89,346.8,-9999.0,'1111122,1111122,1111122' 
DISL,ioos:station:DISL:PPTA:1,2016-02-02T22:30:00Z,30.2791,-87.5561,0.0,1.69,35.54,-9999.0,'1111122,1111122,1111122' 
DISL,ioos:station:DISL:PPTA:1,2016-02-02T23:00:00Z,30.2791,-87.5561,0.0,1.86,31.87,-9999.0,'1111122,1111122,1111122' 
DISL,ioos:station:DISL:PPTA:1,2016-02-02T23:30:00Z,30.2791,-87.5561,0.0,1.3,45.19,-9999.0,'1111122,1111122,1111122' 
DISL,ioos:station:DISL:PPTA:1,2016-02-03T17:30:00Z,30.2791,-87.5561,0.0,6.7,9.0,99.0,'11111222,11111222,11144222' 
DISL,ioos:station:DISL:PPTA:1,2016-02-03T18:00:00Z,30.2791,-87.5561,0.0,5.2,29.0,99.0,'11111222,11111222,11144222' 
DISL,ioos:station:DISL:PPTA:1,2016-02-03T18:30:00Z,30.2791,-87.5561,0.0,6.1,14.0,99.0,'11111222,11111222,11144222' 
DISL,ioos:station:DISL:PPTA:1,2016-02-03T19:00:00Z,30.2791,-87.5561,0.0,3.1,14.0,99.0,'11111222,11111222,11144222' 
DISL,ioos:station:DISL:PPTA:1,2016-02-03T19:30:00Z,30.2791,-87.5561,0.0,4.1,4.0,99.0,'11111222,11111222,11144222' 
DISL,ioos:station:DISL:PPTA:1,2016-02-03T20:00:00Z,30.2791,-87.5561,0.0,1.4,23.0,99.0,'11111222,11111222,11144222' 
DISL,ioos:station:DISL:PPTA:1,2016-02-03T20:30:00Z,30.2791,-87.5561,0.0,1.3,22.0,99.0,'11111222,11111222,11144222' 
DISL,ioos:station:DISL:PPTA:1,2016-02-03T21:00:00Z,30.2791,-87.5561,0.0,2.8,344.0,99.0,'11111222,11111222,11144222' 
DISL,ioos:station:DISL:PPTA:1,2016-02-03T21:30:00Z,30.2791,-87.5561,0.0,3.0,351.0,99.0,'11111222,11111222,11144222' 
DISL,ioos:station:DISL:PPTA:1,2016-02-03T22:00:00Z,30.2791,-87.5561,0.0,1.9,347.0,99.0,'11111222,11111222,11144222' 
DISL,ioos:station:DISL:PPTA:1,2016-02-03T22:30:00Z,30.2791,-87.5561,0.0,1.7,36.0,99.0,'11111222,11111222,11144222' 
DISL,ioos:station:DISL:PPTA:1,2016-02-03T23:00:00Z,30.2791,-87.5561,0.0,1.9,32.0,99.0,'11111222,11111222,11144222' 
DISL,ioos:station:DISL:PPTA:1,2016-02-03T23:30:00Z,30.2791,-87.5561,0.0,1.3,45.0,99.0,'11111222,11111222,11144222' 
DISL,ioos:station:DISL:PPTA:1,2016-02-04T00:00:00Z,30.2791,-87.5561,0.0,0.71,120.7,-9999.0,'1111122,1111122,1111122' 
DISL,ioos:station:DISL:PPTA:1,2016-02-04T00:30:00Z,30.2791,-87.5561,0.0,0.42,96.0,-9999.0,'1111122,1111122,1111122' 
DISL,ioos:station:DISL:PPTA:1,2016-02-04T01:00:00Z,30.2791,-87.5561,0.0,1.43,357.8,-9999.0,'1111122,1111122,1111122' 
DISL,ioos:station:DISL:PPTA:1,2016-02-04T01:30:00Z,30.2791,-87.5561,0.0,0.84,280.9,-9999.0,'1111122,1111122,1111122' 
DISL,ioos:station:DISL:PPTA:1,2016-02-04T02:00:00Z,30.2791,-87.5561,0.0,1.27,322.4,-9999.0,'1111122,1111122,1111122' 
DISL,ioos:station:DISL:PPTA:1,2016-02-04T02:30:00Z,30.2791,-87.5561,0.0,2.38,270.9,-9999.0,'1111122,1111122,1111122' 
DISL,ioos:station:DISL:PPTA:1,2016-02-04T03:00:00Z,30.2791,-87.5561,0.0,2.79,331.0,-9999.0,'1111122,1111122,1111122' 
DISL,ioos:station:DISL:PPTA:1,2016-02-04T03:30:00Z,30.2791,-87.5561,0.0,4.51,316.3,-9999.0,'1111122,1111122,1111122' 
DISL,ioos:station:DISL:PPTA:1,2016-02-04T04:00:00Z,30.2791,-87.5561,0.0,2.95,325.5,-9999.0,'1111122,1111122,1111122' 
DISL,ioos:station:DISL:PPTA:1,2016-02-04T04:30:00Z,30.2791,-87.5561,0.0,4.75,328.9,-9999.0,'1111122,1111122,1111122' 
DISL,ioos:station:DISL:PPTA:1,2016-02-04T05:00:00Z,30.2791,-87.5561,0.0,3.49,341.2,-9999.0,'1111122,1111122,1111122' 
DISL,ioos:station:DISL:PPTA:1,2016-02-04T05:30:00Z,30.2791,-87.5561,0.0,3.48,334.1,-9999.0,'1111122,1111122,1111122' 
DISL,ioos:station:DISL:PPTA:1,2016-02-04T06:00:00Z,30.2791,-87.5561,0.0,4.08,324.9,-9999.0,'1111122,1111122,1111122' 
DISL,ioos:station:DISL:PPTA:1,2016-02-04T06:30:00Z,30.2791,-87.5561,0.0,3.38,312.8,-9999.0,'1111122,1111122,1111122' 
DISL,ioos:station:DISL:PPTA:1,2016-02-04T07:00:00Z,30.2791,-87.5561,0.0,4.44,346.8,-9999.0,'1111122,1111122,1111122' 
DISL,ioos:station:DISL:PPTA:1,2016-02-04T07:30:00Z,30.2791,-87.5561,0.0,5.32,341.3,-9999.0,'1111122,1111122,1111122' 
DISL,ioos:station:DISL:PPTA:1,2016-02-04T08:00:00Z,30.2791,-87.5561,0.0,5.68,339.0,-9999.0,'1111122,1111122,1111122' 
DISL,ioos:station:DISL:PPTA:1,2016-02-04T08:30:00Z,30.2791,-87.5561,0.0,4.76,344.7,-9999.0,'1111122,1111122,1111122' 
DISL,ioos:station:DISL:PPTA:1,2016-02-04T09:00:00Z,30.2791,-87.5561,0.0,5.52,343.2,-9999.0,'1111122,1111122,1111122' 
DISL,ioos:station:DISL:PPTA:1,2016-02-04T09:30:00Z,30.2791,-87.5561,0.0,4.75,348.5,-9999.0,'1111122,1111122,1111122' 
DISL,ioos:station:DISL:PPTA:1,2016-02-04T10:00:00Z,30.2791,-87.5561,0.0,5.72,335.1,-9999.0,'1111122,1111122,1111122' 
DISL,ioos:station:DISL:PPTA:1,2016-02-04T10:30:00Z,30.2791,-87.5561,0.0,6.61,345.0,-9999.0,'1111122,1111122,1111122' 
DISL,ioos:station:DISL:PPTA:1,2016-02-04T11:00:00Z,30.2791,-87.5561,0.0,6.85,344.6,-9999.0,'1111122,1111122,1111122' 
DISL,ioos:station:DISL:PPTA:1,2016-02-04T11:30:00Z,30.2791,-87.5561,0.0,6.81,348.9,-9999.0,'1111122,1111122,1111122' 
DISL,ioos:station:DISL:PPTA:1,2016-02-04T12:00:00Z,30.2791,-87.5561,0.0,6.1,354.5,-9999.0,'1111122,1111122,1111122' 
DISL,ioos:station:DISL:PPTA:1,2016-02-04T12:30:00Z,30.2791,-87.5561,0.0,6.6,359.7,-9999.0,'1111122,1111122,1111122' 
DISL,ioos:station:DISL:PPTA:1,2016-02-04T13:00:00Z,30.2791,-87.5561,0.0,6.45,8.79,-9999.0,'1111122,1111122,1111122' 
DISL,ioos:station:DISL:PPTA:1,2016-02-04T13:30:00Z,30.2791,-87.5561,0.0,5.59,10.08,-9999.0,'1111122,1111122,1111122' 
DISL,ioos:station:DISL:PPTA:1,2016-02-04T14:00:00Z,30.2791,-87.5561,0.0,5.27,3.386,-9999.0,'1111122,1111122,1111122' 
DISL,ioos:station:DISL:PPTA:1,2016-02-04T14:30:00Z,30.2791,-87.5561,0.0,6.66,2.261,-9999.0,'1111122,1111122,1111122' 
DISL,ioos:station:DISL:PPTA:1,2016-02-04T15:00:00Z,30.2791,-87.5561,0.0,7.37,2.534,-9999.0,'1111122,1111122,1111122' 
DISL,ioos:station:DISL:PPTA:1,2016-02-04T15:30:00Z,30.2791,-87.5561,0.0,7.43,0.655,-9999.0,'1111122,1111122,1111122' 
DISL,ioos:station:DISL:PPTA:1,2016-02-04T16:00:00Z,30.2791,-87.5561,0.0,6.51,345.9,-9999.0,'1111122,1111122,1111122' 
DISL,ioos:station:DISL:PPTA:1,2016-02-04T16:30:00Z,30.2791,-87.5561,0.0,6.02,346.1,-9999.0,'1111122,1111122,1111122' 
DISL,ioos:station:DISL:PPTA:1,2016-02-04T17:00:00Z,30.2791,-87.5561,0.0,5.45,334.2,-9999.0,'1111122,1111122,1111122' 
DISL,ioos:station:DISL:PPTA:1,2016-02-04T17:30:00Z,30.2791,-87.5561,0.0,5.86,330.7,-9999.0,'1111122,1111122,1111122' 
DISL,ioos:station:DISL:PPTA:1,2016-02-04T18:00:00Z,30.2791,-87.5561,0.0,5.79,334.5,-9999.0,'1111122,1111122,1111122' 
DISL,ioos:station:DISL:PPTA:1,2016-02-04T18:30:00Z,30.2791,-87.5561,0.0,6.1,302.9,-9999.0,'1111122,1111122,1111122' 
DISL,ioos:station:DISL:PPTA:1,2016-02-04T19:00:00Z,30.2791,-87.5561,0.0,6.72,314.5,-9999.0,'1111122,1111122,1111122' 
DISL,ioos:station:DISL:PPTA:1,2016-02-04T19:30:00Z,30.2791,-87.5561,0.0,6.76,312.5,-9999.0,'1111122,1111122,1111122' 
DISL,ioos:station:DISL:PPTA:1,2016-02-04T20:00:00Z,30.2791,-87.5561,0.0,6.83,308.2,-9999.0,'1111122,1111122,1111122' 
DISL,ioos:station:DISL:PPTA:1,2016-02-04T20:30:00Z,30.2791,-87.5561,0.0,7.4,307.0,-9999.0,'1111122,1111122,1111122' 
DISL,ioos:station:DISL:PPTA:1,2016-02-04T21:00:00Z,30.2791,-87.5561,0.0,7.52,309.9,-9999.0,'1111122,1111122,1111122' 
DISL,ioos:station:DISL:PPTA:1,2016-02-04T21:30:00Z,30.2791,-87.5561,0.0,8.42,318.2,-9999.0,'1111122,1111122,1111122' 
DISL,ioos:station:DISL:PPTA:1,2016-02-04T22:00:00Z,30.2791,-87.5561,0.0,6.86,311.3,-9999.0,'1111122,1111122,1111122' 
DISL,ioos:station:DISL:PPTA:1,2016-02-04T22:30:00Z,30.2791,-87.5561,0.0,7.26,323.0,-9999.0,'1111122,1111122,1111122' 
DISL,ioos:station:DISL:PPTA:1,2016-02-04T23:00:00Z,30.2791,-87.5561,0.0,6.63,334.3,-9999.0,'1111122,1111122,1111122' 
DISL,ioos:station:DISL:PPTA:1,2016-02-04T23:30:00Z,30.2791,-87.5561,0.0,5.09,335.5,-9999.0,'1111122,1111122,1111122' 
DISL,ioos:station:DISL:PPTA:1,2016-02-05T00:00:00Z,30.2791,-87.5561,0.0,4.52,324.9,-9999.0,'1111122,1111122,1111122' 
DISL,ioos:station:DISL:PPTA:1,2016-02-05T00:30:00Z,30.2791,-87.5561,0.0,4.36,322.3,-9999.0,'1111122,1111122,1111122' 
DISL,ioos:station:DISL:PPTA:1,2016-02-05T01:00:00Z,30.2791,-87.5561,0.0,5.08,320.3,-9999.0,'1111122,1111122,1111122' 
DISL,ioos:station:DISL:PPTA:1,2016-02-05T01:30:00Z,30.2791,-87.5561,0.0,4.37,326.7,-9999.0,'1111122,1111122,1111122' 
DISL,ioos:station:DISL:PPTA:1,2016-02-05T02:00:00Z,30.2791,-87.5561,0.0,5.26,323.9,-9999.0,'1111122,1111122,1111122' 
DISL,ioos:station:DISL:PPTA:1,2016-02-05T02:30:00Z,30.2791,-87.5561,0.0,4.05,326.9,-9999.0,'1111122,1111122,1111122' 
DISL,ioos:station:DISL:PPTA:1,2016-02-05T03:00:00Z,30.2791,-87.5561,0.0,5.1,321.9,-9999.0,'1111122,1111122,1111122' 
DISL,ioos:station:DISL:PPTA:1,2016-02-05T03:30:00Z,30.2791,-87.5561,0.0,4.38,322.5,-9999.0,'1111122,1111122,1111122' 
DISL,ioos:station:DISL:PPTA:1,2016-02-05T04:00:00Z,30.2791,-87.5561,0.0,4.49,327.5,-9999.0,'1111122,1111122,1111122' 
DISL,ioos:station:DISL:PPTA:1,2016-02-05T04:30:00Z,30.2791,-87.5561,0.0,4.62,330.5,-9999.0,'1111122,1111122,1111122' 
DISL,ioos:station:DISL:PPTA:1,2016-02-05T05:00:00Z,30.2791,-87.5561,0.0,4.28,329.2,-9999.0,'1111122,1111122,1111122' 
DISL,ioos:station:DISL:PPTA:1,2016-02-05T05:30:00Z,30.2791,-87.5561,0.0,4.11,345.8,-9999.0,'1111122,1111122,1111122' 
DISL,ioos:station:DISL:PPTA:1,2016-02-05T06:00:00Z,30.2791,-87.5561,0.0,5.0,348.6,-9999.0,'1111122,1111122,1111122' 
DISL,ioos:station:DISL:PPTA:1,2016-02-05T06:30:00Z,30.2791,-87.5561,0.0,4.57,351.4,-9999.0,'1111122,1111122,1111122' 
DISL,ioos:station:DISL:PPTA:1,2016-02-05T07:00:00Z,30.2791,-87.5561,0.0,4.1,340.9,-9999.0,'1111122,1111122,1111122' 
DISL,ioos:station:DISL:PPTA:1,2016-02-05T07:30:00Z,30.2791,-87.5561,0.0,3.89,343.1,-9999.0,'1111122,1111122,1111122' 
DISL,ioos:station:DISL:PPTA:1,2016-02-05T08:00:00Z,30.2791,-87.5561,0.0,4.02,340.9,-9999.0,'1111122,1111122,1111122' 
DISL,ioos:station:DISL:PPTA:1,2016-02-05T08:30:00Z,30.2791,-87.5561,0.0,3.79,337.3,-9999.0,'1111122,1111122,1111122' 
DISL,ioos:station:DISL:PPTA:1,2016-02-05T09:00:00Z,30.2791,-87.5561,0.0,3.96,349.4,-9999.0,'1111122,1111122,1111122' 
DISL,ioos:station:DISL:PPTA:1,2016-02-05T09:30:00Z,30.2791,-87.5561,0.0,3.59,354.9,-9999.0,'1111122,1111122,1111122' 
DISL,ioos:station:DISL:PPTA:1,2016-02-05T10:00:00Z,30.2791,-87.5561,0.0,3.66,357.3,-9999.0,'1111122,1111122,1111122' 
DISL,ioos:station:DISL:PPTA:1,2016-02-05T10:30:00Z,30.2791,-87.5561,0.0,3.79,351.7,-9999.0,'1111122,1111122,1111122' 
DISL,ioos:station:DISL:PPTA:1,2016-02-05T11:00:00Z,30.2791,-87.5561,0.0,3.66,349.2,-9999.0,'1111122,1111122,1111122' 
DISL,ioos:station:DISL:PPTA:1,2016-02-05T11:30:00Z,30.2791,-87.5561,0.0,3.07,355.3,-9999.0,'1111122,1111122,1111122' 
DISL,ioos:station:DISL:PPTA:1,2016-02-05T12:00:00Z,30.2791,-87.5561,0.0,3.4,347.3,-9999.0,'1111122,1111122,1111122' 
DISL,ioos:station:DISL:PPTA:1,2016-02-05T12:30:00Z,30.2791,-87.5561,0.0,4.09,349.6,-9999.0,'1111122,1111122,1111122' 
DISL,ioos:station:DISL:PPTA:1,2016-02-05T13:00:00Z,30.2791,-87.5561,0.0,4.28,344.0,-9999.0,'1111122,1111122,1111122' 
DISL,ioos:station:DISL:PPTA:1,2016-02-05T13:30:00Z,30.2791,-87.5561,0.0,4.21,348.4,-9999.0,'1111122,1111122,1111122' 
DISL,ioos:station:DISL:PPTA:1,2016-02-05T14:00:00Z,30.2791,-87.5561,0.0,4.24,360.0,-9999.0,'1111122,1111122,1111122' 
DISL,ioos:station:DISL:PPTA:1,2016-02-05T14:30:00Z,30.2791,-87.5561,0.0,4.84,8.39,-9999.0,'1111122,1111122,1111122' 
DISL,ioos:station:DISL:PPTA:1,2016-02-05T15:00:00Z,30.2791,-87.5561,0.0,6.05,20.32,-9999.0,'1111122,1111122,1111122' 
DISL,ioos:station:DISL:PPTA:1,2016-02-05T15:30:00Z,30.2791,-87.5561,0.0,6.12,28.29,-9999.0,'1111122,1111122,1111122' 
DISL,ioos:station:DISL:PPTA:1,2016-02-05T16:00:00Z,30.2791,-87.5561,0.0,5.51,22.51,-9999.0,'1111122,1111122,1111122' 
DISL,ioos:station:DISL:PPTA:1,2016-02-05T16:30:00Z,30.2791,-87.5561,0.0,5.9,44.59,-9999.0,'1111122,1111122,1111122' 
DISL,ioos:station:DISL:PPTA:1,2016-02-05T17:00:00Z,30.2791,-87.5561,0.0,5.75,25.2,-9999.0,'1111122,1111122,1111122' 
DISL,ioos:station:DISL:PPTA:1,2016-02-05T17:30:00Z,30.2791,-87.5561,0.0,5.75,20.88,-9999.0,'1111122,1111122,1111122' 
DISL,ioos:station:DISL:PPTA:1,2016-02-05T18:00:00Z,30.2791,-87.5561,0.0,5.17,43.11,-9999.0,'1111122,1111122,1111122' 
DISL,ioos:station:DISL:PPTA:1,2016-02-05T18:30:00Z,30.2791,-87.5561,0.0,4.06,35.84,-9999.0,'1111122,1111122,1111122' 
DISL,ioos:station:DISL:PPTA:1,2016-02-05T19:00:00Z,30.2791,-87.5561,0.0,4.72,34.3,-9999.0,'1111122,1111122,1111122' 
DISL,ioos:station:DISL:PPTA:1,2016-02-05T19:30:00Z,30.2791,-87.5561,0.0,2.7,25.76,-9999.0,'1111122,1111122,1111122' 
DISL,ioos:station:DISL:PPTA:1,2016-02-05T20:00:00Z,30.2791,-87.5561,0.0,3.86,0.402,-9999.0,'1111122,1111122,1111122' 
DISL,ioos:station:DISL:PPTA:1,2016-02-05T20:30:00Z,30.2791,-87.5561,0.0,3.65,332.8,-9999.0,'1111122,1111122,1111122' 
DISL,ioos:station:DISL:PPTA:1,2016-02-05T21:00:00Z,30.2791,-87.5561,0.0,3.38,350.6,-9999.0,'1111122,1111122,1111122' 
DISL,ioos:station:DISL:PPTA:1,2016-02-05T21:30:00Z,30.2791,-87.5561,0.0,3.43,6.666,-9999.0,'1111122,1111122,1111122' 
DISL,ioos:station:DISL:PPTA:1,2016-02-05T22:00:00Z,30.2791,-87.5561,0.0,3.62,356.0,-9999.0,'1111122,1111122,1111122' 
DISL,ioos:station:DISL:PPTA:1,2016-02-05T22:30:00Z,30.2791,-87.5561,0.0,4.08,357.0,-9999.0,'1111122,1111122,1111122' 
DISL,ioos:station:DISL:PPTA:1,2016-02-05T23:00:00Z,30.2791,-87.5561,0.0,3.52,11.91,-9999.0,'1111122,1111122,1111122' 
DISL,ioos:station:DISL:PPTA:1,2016-02-05T23:30:00Z,30.2791,-87.5561,0.0,3.1,358.1,-9999.0,'1111122,1111122,1111122' 
DISL,ioos:station:DISL:PPTA:1,2016-02-06T00:00:00Z,30.2791,-87.5561,0.0,2.96,359.2,-9999.0,'1111122,1111122,1111122' 
DISL,ioos:station:DISL:PPTA:1,2016-02-06T00:30:00Z,30.2791,-87.5561,0.0,2.66,2.074,-9999.0,'1111122,1111122,1111122' 
DISL,ioos:station:DISL:PPTA:1,2016-02-06T01:00:00Z,30.2791,-87.5561,0.0,3.0,11.9,-9999.0,'1111122,1111122,1111122' 
DISL,ioos:station:DISL:PPTA:1,2016-02-06T01:30:00Z,30.2791,-87.5561,0.0,2.9,353.3,-9999.0,'1111122,1111122,1111122' 
DISL,ioos:station:DISL:PPTA:1,2016-02-06T02:00:00Z,30.2791,-87.5561,0.0,3.11,1.973,-9999.0,'1111122,1111122,1111122' 
DISL,ioos:station:DISL:PPTA:1,2016-02-06T02:30:00Z,30.2791,-87.5561,0.0,3.16,11.68,-9999.0,'1111122,1111122,1111122' 
DISL,ioos:station:DISL:PPTA:1,2016-02-06T03:00:00Z,30.2791,-87.5561,0.0,3.17,12.82,-9999.0,'1111122,1111122,1111122' 
DISL,ioos:station:DISL:PPTA:1,2016-02-06T03:30:00Z,30.2791,-87.5561,0.0,3.25,11.26,-9999.0,'1111122,1111122,1111122' 
DISL,ioos:station:DISL:PPTA:1,2016-02-06T04:00:00Z,30.2791,-87.5561,0.0,3.57,8.24,-9999.0,'1111122,1111122,1111122' 
DISL,ioos:station:DISL:PPTA:1,2016-02-06T04:30:00Z,30.2791,-87.5561,0.0,3.0,7.632,-9999.0,'1111122,1111122,1111122' 
DISL,ioos:station:DISL:PPTA:1,2016-02-06T05:00:00Z,30.2791,-87.5561,0.0,3.51,7.111,-9999.0,'1111122,1111122,1111122' 
DISL,ioos:station:DISL:PPTA:1,2016-02-06T05:30:00Z,30.2791,-87.5561,0.0,3.64,6.076,-9999.0,'1111122,1111122,1111122' 
DISL,ioos:station:DISL:PPTA:1,2016-02-06T06:00:00Z,30.2791,-87.5561,0.0,3.25,7.429,-9999.0,'1111122,1111122,1111122' 
DISL,ioos:station:DISL:PPTA:1,2016-02-06T06:30:00Z,30.2791,-87.5561,0.0,3.37,17.22,-9999.0,'1111122,1111122,1111122' 
DISL,ioos:station:DISL:PPTA:1,2016-02-06T07:00:00Z,30.2791,-87.5561,0.0,3.14,23.09,-9999.0,'1111122,1111122,1111122' 
DISL,ioos:station:DISL:PPTA:1,2016-02-06T07:30:00Z,30.2791,-87.5561,0.0,2.39,27.81,-9999.0,'1111122,1111122,1111122' 
DISL,ioos:station:DISL:PPTA:1,2016-02-06T08:00:00Z,30.2791,-87.5561,0.0,1.54,356.0,-9999.0,'1111122,1111122,1111122' 
DISL,ioos:station:DISL:PPTA:1,2016-02-06T08:30:00Z,30.2791,-87.5561,0.0,2.29,6.897,-9999.0,'1111122,1111122,1111122' 
DISL,ioos:station:DISL:PPTA:1,2016-02-06T09:00:00Z,30.2791,-87.5561,0.0,2.34,22.49,-9999.0,'1111122,1111122,1111122' 
DISL,ioos:station:DISL:PPTA:1,2016-02-06T09:30:00Z,30.2791,-87.5561,0.0,1.82,354.6,-9999.0,'1111122,1111122,1111122' 
DISL,ioos:station:DISL:PPTA:1,2016-02-06T10:00:00Z,30.2791,-87.5561,0.0,1.85,344.9,-9999.0,'1111122,1111122,1111122' 
DISL,ioos:station:DISL:PPTA:1,2016-02-06T10:30:00Z,30.2791,-87.5561,0.0,1.74,320.5,-9999.0,'1111122,1111122,1111122' 
DISL,ioos:station:DISL:PPTA:1,2016-02-06T11:00:00Z,30.2791,-87.5561,0.0,2.36,354.0,-9999.0,'1111122,1111122,1111122' 
DISL,ioos:station:DISL:PPTA:1,2016-02-06T11:30:00Z,30.2791,-87.5561,0.0,2.19,337.5,-9999.0,'1111122,1111122,1111122' 
DISL,ioos:station:DISL:PPTA:1,2016-02-06T12:00:00Z,30.2791,-87.5561,0.0,2.07,1.481,-9999.0,'1111122,1111122,1111122' 
DISL,ioos:station:DISL:PPTA:1,2016-02-06T12:30:00Z,30.2791,-87.5561,0.0,2.12,341.0,-9999.0,'1111122,1111122,1111122' 
DISL,ioos:station:DISL:PPTA:1,2016-02-06T13:00:00Z,30.2791,-87.5561,0.0,2.66,355.6,-9999.0,'1111122,1111122,1111122' 
DISL,ioos:station:DISL:PPTA:1,2016-02-06T13:30:00Z,30.2791,-87.5561,0.0,2.5,0.578,-9999.0,'1111122,1111122,1111122' 
DISL,ioos:station:DISL:PPTA:1,2016-02-06T14:00:00Z,30.2791,-87.5561,0.0,2.78,343.5,-9999.0,'1111122,1111122,1111122' 
DISL,ioos:station:DISL:PPTA:1,2016-02-06T14:30:00Z,30.2791,-87.5561,0.0,2.83,12.49,-9999.0,'1111122,1111122,1111122' 
DISL,ioos:station:DISL:PPTA:1,2016-02-06T15:00:00Z,30.2791,-87.5561,0.0,2.56,14.1,-9999.0,'1111122,1111122,1111122' 
DISL,ioos:station:DISL:PPTA:1,2016-02-06T15:30:00Z,30.2791,-87.5561,0.0,2.12,348.9,-9999.0,'1111122,1111122,1111122' 
DISL,ioos:station:DISL:PPTA:1,2016-02-06T16:00:00Z,30.2791,-87.5561,0.0,2.7,6.38,-9999.0,'1111122,1111122,1111122' 
DISL,ioos:station:DISL:PPTA:1,2016-02-06T16:30:00Z,30.2791,-87.5561,0.0,3.08,13.32,-9999.0,'1111122,1111122,1111122' 
DISL,ioos:station:DISL:PPTA:1,2016-02-06T17:00:00Z,30.2791,-87.5561,0.0,4.32,56.87,-9999.0,'1111122,1111122,1111122' 
DISL,ioos:station:DISL:PPTA:1,2016-02-06T17:30:00Z,30.2791,-87.5561,0.0,4.28,69.98,-9999.0,'1111122,1111122,1111122' 
DISL,ioos:station:DISL:PPTA:1,2016-02-06T18:00:00Z,30.2791,-87.5561,0.0,4.67,76.69,-9999.0,'1111122,1111122,1111122' 
DISL,ioos:station:DISL:PPTA:1,2016-02-06T18:30:00Z,30.2791,-87.5561,0.0,4.51,76.05,-9999.0,'1111122,1111122,1111122' 
DISL,ioos:station:DISL:PPTA:1,2016-02-06T19:00:00Z,30.2791,-87.5561,0.0,4.13,76.59,-9999.0,'1111122,1111122,1111122' 
DISL,ioos:station:DISL:PPTA:1,2016-02-06T19:30:00Z,30.2791,-87.5561,0.0,2.97,82.3,-9999.0,'1111122,1111122,1111122' 